TimeMDT,TemperatureF,Dew PointF,Humidity,Sea Level PressureIn,VisibilityMPH,Wind Direction,Wind SpeedMPH,Gust SpeedMPH,PrecipitationIn,Events,Conditions,WindDirDegrees,DateUTC
12:53 AM,37.0,30.9,79,29.90,9.0,NE,11.5,-,N/A,,Clear,40,2013-03-15 06:53:00
1:53 AM,36.0,30.9,82,29.88,8.0,NNE,10.4,-,N/A,,Partly Cloudy,30,2013-03-15 07:53:00
2:53 AM,35.1,30.9,85,29.84,7.0,NNE,9.2,-,N/A,,Clear,20,2013-03-15 08:53:00
3:53 AM,33.1,30.0,89,29.82,5.0,NNE,9.2,-,N/A,,Clear,20,2013-03-15 09:53:00
4:53 AM,33.1,30.0,89,29.80,5.0,NNE,10.4,-,N/A,,Clear,30,2013-03-15 10:53:00
5:53 AM,30.9,28.0,89,29.83,4.0,NNW,10.4,-,N/A,,Clear,340,2013-03-15 11:53:00
6:53 AM,32.0,28.9,88,29.86,5.0,NNW,6.9,-,N/A,,Clear,340,2013-03-15 12:53:00
7:53 AM,32.0,28.9,88,29.89,5.0,NNW,11.5,-,N/A,,Clear,330,2013-03-15 13:53:00
8:53 AM,34.0,30.0,85,29.88,7.0,NNW,3.5,-,N/A,,Clear,330,2013-03-15 14:53:00
9:53 AM,36.0,30.9,82,29.89,10.0,West,8.1,-,N/A,,Clear,270,2013-03-15 15:53:00
10:53 AM,41.0,32.0,70,29.90,10.0,Variable,4.6,-,N/A,,Clear,0,2013-03-15 16:53:00
11:53 AM,48.9,34.0,56,29.89,10.0,West,3.5,-,N/A,,Clear,260,2013-03-15 17:53:00
12:53 PM,62.1,30.9,31,29.85,10.0,NW,24.2,34.5,N/A,,Clear,310,2013-03-15 18:53:00
1:53 PM,61.0,27.0,27,29.85,10.0,WNW,36.8,49.5,N/A,,Partly Cloudy,300,2013-03-15 19:53:00
2:53 PM,62.1,28.9,29,29.86,10.0,NW,32.2,43.7,N/A,,Partly Cloudy,320,2013-03-15 20:53:00
3:53 PM,54.0,32.0,43,29.93,10.0,NNW,29.9,39.1,N/A,,Clear,340,2013-03-15 21:53:00
4:53 PM,50.0,30.9,48,29.96,10.0,NNW,20.7,31.1,N/A,,Clear,340,2013-03-15 22:53:00
5:53 PM,43.0,30.0,60,30.04,10.0,NNE,20.7,-,N/A,,Clear,20,2013-03-15 23:53:00
6:53 PM,37.0,28.9,73,30.07,10.0,NNE,12.7,-,N/A,,Partly Cloudy,20,2013-03-16 00:53:00
7:53 PM,34.0,26.1,73,30.12,10.0,NNE,10.4,-,N/A,,Scattered Clouds,20,2013-03-16 01:53:00
8:03 PM,33.8,26.6,75,30.04,10.0,North,16.1,19.6,N/A,,Mostly Cloudy,10,2013-03-16 02:03:00
8:53 PM,33.1,25.0,72,30.13,10.0,NE,11.5,-,N/A,,Overcast,40,2013-03-16 02:53:00
9:53 PM,32.0,24.1,73,30.13,10.0,NNE,11.5,-,N/A,,Mostly Cloudy,20,2013-03-16 03:53:00
10:04 PM,30.2,24.8,80,30.07,10.0,North,5.8,-,N/A,,Mostly Cloudy,360,2013-03-16 04:04:00
10:26 PM,32.0,24.8,75,30.10,10.0,NNW,8.1,-,N/A,,Mostly Cloudy,340,2013-03-16 04:26:00
10:53 PM,32.0,23.0,69,30.16,10.0,NNW,10.4,-,N/A,,Overcast,340,2013-03-16 04:53:00
11:53 PM,28.0,21.9,78,30.16,10.0,NNW,6.9,-,N/A,,Mostly Cloudy,330,2013-03-16 05:53:00